Regional Weather Roundup
Issued by NWS

Home | Current Version | Previous Version | Graphics & Text | Print | Product List | Glossary On
Versions: 1 2 3 4 5 6 7 8 9 10 11 12 13 14 15 16 17 18 19 20 21 22 23 24 25 26 27 28 29 30 31 32 33 34 35 36 37 38 39 40 41 42 43 44 45 46 47 48 49 50
000
ASUS43 KLOT 300200
RWRIL

ILLINOIS REGIONAL WEATHER ROUNDUP
NATIONAL WEATHER SERVICE CHICAGO/ROMEOVILLE IL
800 PM CST THU JAN 29 2015

NOTE: "FAIR" INDICATES FEW OR NO CLOUDS BELOW 12,000 FEET WITH NO
SIGNIFICANT WEATHER AND/OR OBSTRUCTIONS TO VISIBILITY.

* THESE STATIONS ARE NOT UNDER NWS QUALITY CONTROL. THEY ALSO MAY NOT
  REPORT WEATHER SUCH AS PRECIPITATION OR FOG.

ILZ001-002-007-009-015-016-024-300300-
NORTHWEST ILLINOIS

CITY           SKY/WX    TMP DP  RH WIND       PRES   REMARKS
MOLINE         CLOUDY    33  22  63 NW24G35   30.33R WCI  20
STERLING*      CLOUDY    34  25  69 NW13G18   30.28R WCI  25
$$

ILZ003-004-008-010-011-017-018-300300-
NORTH CENTRAL ILLINOIS

CITY           SKY/WX    TMP DP  RH WIND       PRES   REMARKS
ROCKFORD       CLOUDY    34  22  61 NW13      30.26R WCI  25
$$

ILZ005-006-012>014-019>023-300300-
NORTHEAST ILLINOIS

CITY           SKY/WX    TMP DP  RH WIND       PRES   REMARKS
CHICAGO-OHARE  CLOUDY    34  21  59 NW12      30.20R WCI  25
CHICAGO-MIDWAY CLOUDY    36  23  59 NW17      30.21R WCI  26
AURORA         CLOUDY    34  24  67 NW8       30.23R WCI  27
WAUKEGAN       CLOUDY    34  19  54 NW9       30.18R WCI  27
DUPAGE AIRPORT CLOUDY    34  20  56 NW17      30.21R WCI  23
WHEELING       CLOUDY    34  22  61 NW14      30.22R WCI  25
NORTHERLY ISL    N/A     36  19  50 W12         N/A  WCI  28
$$

LMZ740>746-300300-
SOUTHERN LAKE MICHIGAN

STATION/POSITION SKY/WX   TEMP    WIND        PRES    VSBY  WAVE
                          AIR SEA DIR/SP/G                  HT/PER
                          (F)     (DEG/KT/KT) (MB)    (MI)  (FT/S)
WAUKEGAN HARBOR            35     310/ 12/ 21   N/A
HARRISON CRIB              35     320/ 17/ 20   N/A
BURNHAM HARBOR             36     340/ 15/ 18   N/A
CALUMET HARBOR             36     290/ 11/ 16   N/A
MICHIGAN CITY              34     290/ 17/ 19   N/A
$$

ILZ025>027-034>036-040-047-049-050-058-095>099-300300-
WEST-CENTRAL ILLINOIS

CITY           SKY/WX    TMP DP  RH WIND       PRES   REMARKS
QUINCY         CLOUDY    34  23  64 NW23G32   30.38R WCI  22
$$

ILZ028>032-037-038-041>044-048-051>054-059>061-300300-
CENTRAL ILLINOIS

CITY           SKY/WX    TMP DP  RH WIND       PRES   REMARKS
DECATUR        CLOUDY    35  28  75 NW18G26   30.30R WCI  24
PEORIA         CLOUDY    35  25  66 NW10      30.32R WCI  27
SPRINGFIELD    CLOUDY    35  26  69 NW17      30.34R WCI  25
TAYLORVILLE    NOT AVBL
$$

ILZ033-039-045-046-055>057-062-063-300300-
EAST-CENTRAL ILLINOIS

CITY           SKY/WX    TMP DP  RH WIND       PRES   REMARKS
CHAMPAIGN      CLOUDY    35  29  78 NW16      30.26R WCI  25
MATTOON        CLOUDY    34  30  85 NW16      30.28R WCI  24
$$

ILZ079-100>102-300300-
SOUTHWEST ILLINOIS

CITY           SKY/WX    TMP DP  RH WIND       PRES   REMARKS
ALTON          CLOUDY    36  27  69 NW21      30.38R WCI  24
BELLEVILLE     CLOUDY    37  30  74 NW16      30.37R WCI  28
CAHOKIA*       CLOUDY    38  28  67 NW15      30.39R WCI  29
$$

ILZ064>066-069>071-074>076-080>082-084>086-088>090-092>094-300300-
SOUTH-CENTRAL ILLINOIS

CITY           SKY/WX    TMP DP  RH WIND       PRES   REMARKS
CARBONDALE     CLOUDY    40  30  67 NW18G26   30.35R
MT. VERNON     CLOUDY    37  27  65 N5        30.35R WCI  34
$$

ILZ067-068-072-073-078-083-087-091-300300-
SOUTHEAST ILLINOIS

CITY           SKY/WX    TMP DP  RH WIND       PRES   REMARKS
LAWRENCEVILLE  CLOUDY    37  33  85 NW17      30.29R WCI  27
$$

ABBREVIATIONS USED IN REMARKS
   TC - TEMPERATURE IN CELSIUS
  WCI - WIND CHILL INDEX
   HX - HEAT INDEX
  VSB - VISIBILITY
$$




USA.gov is the U.S. government's official web portal to all federal, state and local government web resources and services.